Lapse_Rate
5.1 5.0 4.8 4.5 4.2 4.1 4.2 4.3 4.2 4.2 4.6 4.8 5.0 5.0 5.0 4.9 5.1 5.4 5.8 5.8 5.8 5.8
5.1 5.1 4.8 4.6 4.3 4.3 4.3 4.5 4.3 4.4 4.9 4.9 5.0 4.9 4.9 5.1 5.3 5.5 5.7 5.7 6.0 6.2
5.2 5.0 4.9 4.6 4.6 4.5 4.5 4.4 4.5 4.7 5.0 5.0 5.0 4.9 5.0 5.3 5.2 5.6 5.7 5.8 6.2 6.4
5.1 5.1 5.0 4.8 4.7 4.6 4.4 4.4 4.5 4.9 4.9 5.0 5.1 5.0 5.1 5.4 5.3 5.7 5.8 5.7 6.2 6.4
5.1 5.0 5.0 5.0 4.8 4.6 4.4 4.3 4.5 5.1 5.0 5.0 5.0 5.0 5.4 5.3 5.7 5.9 5.8 5.9 6.4 6.8
5.0 5.0 5.1 5.1 4.9 4.7 4.4 4.4 4.7 5.3 5.1 5.0 5.1 5.0 5.2 5.1 5.7 5.7 5.8 5.9 6.4 6.8
5.2 5.2 5.0 5.1 5.0 4.8 4.5 4.4 4.7 5.2 5.2 5.1 5.1 5.0 5.1 5.0 5.5 5.8 6.1 6.4 6.5 6.2
5.3 5.1 5.0 5.2 5.1 4.8 4.7 4.6 4.7 5.1 5.2 5.2 5.4 5.1 4.9 5.3 5.5 5.9 6.0 6.5 6.6 6.2
5.3 5.1 5.0 5.2 5.1 5.0 5.0 4.9 4.9 5.2 5.3 5.2 5.2 5.0 4.5 5.1 5.4 5.8 6.3 5.8 6.7 6.0
5.3 5.1 5.0 5.1 5.1 5.1 5.0 5.0 5.1 5.2 5.2 5.3 5.2 5.1 4.8 5.0 5.3 5.7 5.9 6.0 5.8 5.7
5.3 5.2 5.0 5.0 5.2 5.2 5.0 5.0 5.1 5.2 5.0 5.0 5.2 5.0 5.0 4.8 5.3 5.4 5.7 5.8 5.5 5.3
5.3 5.3 5.1 5.0 5.0 5.3 5.2 5.0 5.0 5.2 5.2 5.0 5.2 5.0 5.2 4.9 5.2 5.6 5.6 5.4 5.3 4.9
5.4 5.4 5.4 5.2 5.0 5.2 5.3 5.1 5.1 5.2 5.3 5.0 5.2 5.2 5.1 5.2 4.8 5.3 5.6 5.0 5.1 4.9
5.4 5.5 5.5 5.4 5.2 5.1 5.2 5.2 5.3 5.3 5.4 5.5 5.2 5.2 5.2 5.3 5.6 5.0 5.3 5.1 4.9 4.8
Wind_Speed
5 3 4 4 4 4 5 6 12 13 14 15 16 15 11 7 8 10 9 12 10 8
5 6 5 6 5 4 5 8 13 13 11 15 15 15 13 9 10 11 10 10 11 9
5 5 5 5 6 7 8 12 10 10 11 12 12 14 13 11 11 12 9 9 12 11
5 5 5 5 6 7 10 11 10 11 12 13 13 13 13 13 14 14 13 13 13 13
5 5 6 5 6 10 9 13 11 11 12 13 13 14 14 15 15 15 15 15 15 15
5 5 5 6 7 10 9 9 12 11 13 15 14 14 15 15 15 15 15 14 15 17
5 5 5 5 7 8 11 10 11 11 13 16 15 14 15 16 16 15 15 15 16 16
5 5 5 6 6 7 9 8 10 11 12 16 14 13 16 15 15 16 16 16 15 17
5 5 5 6 7 8 9 10 10 11 12 16 13 25 25 20 13 16 17 18 18 17
5 6 6 6 8 9 9 9 10 11 12 13 17 28 26 24 12 13 16 19 18 17
5 5 6 6 7 8 7 9 9 11 11 11 13 28 26 22 13 13 16 18 21 19
5 5 6 7 6 6 6 8 9 10 12 13 13 29 29 19 13 14 16 17 20 20
5 5 5 5 5 4 4 7 7 10 11 17 14 29 30 20 10 14 12 15 17 31
6 6 5 5 4 5 6 7 8 9 10 13 15 15 30 31 13 10 10 12 12 14
Wind_Direction
29 2 341 333 323 320 327 327 335 335 335 336 336 338 331 328 333 324 314 308 304 300
22 14 359 351 346 327 331 343 342 338 339 339 337 342 345 336 329 326 321 313 313 308
23 16 9 4 356 357 350 351 345 345 343 339 342 351 350 340 335 332 329 325 320 323
19 14 17 10 359 358 356 353 352 346 344 345 347 350 349 342 344 341 338 337 338 341
28 17 18 5 4 6 0 357 353 349 350 350 352 352 352 347 345 346 348 346 346 353
23 20 14 12 11 10 0 359 356 356 356 356 357 357 357 350 346 351 352 350 353 360
25 23 26 20 16 15 4 1 1 359 360 4 1 4 2 354 351 356 358 0 1 8
39 35 36 26 18 14 9 1 360 359 7 11 8 8 8 359 354 359 5 9 12 15
49 40 38 25 19 18 8 358 359 6 7 15 11 9 16 12 1 6 11 15 16 17
56 45 39 30 21 21 8 353 2 5 5 10 15 12 17 14 11 11 15 20 17 22
65 54 42 36 22 17 9 4 359 2 1 9 11 18 19 15 15 21 22 22 24 23
70 60 46 38 21 9 3 7 3 5 2 12 10 21 20 19 18 23 29 26 27 27
73 68 57 45 30 6 4 12 7 15 9 12 11 20 24 25 18 24 24 26 27 29
67 66 55 51 36 15 15 16 14 12 10 16 15 17 26 28 25 20 26 26 22 30